TimeCDT,TemperatureF,Dew PointF,Humidity,Sea Level PressureIn,VisibilityMPH,Wind Direction,Wind SpeedMPH,Gust SpeedMPH,PrecipitationIn,Events,Conditions,WindDirDegrees,DateUTC
12:13 AM,57.2,44.6,63,29.85,10.0,SSE,5.8,-,N/A,,Clear,150,2012-10-04 05:13:00
12:33 AM,57.2,44.6,63,29.84,10.0,SE,6.9,-,N/A,,Clear,140,2012-10-04 05:33:00
12:53 AM,57.2,44.6,63,29.83,10.0,SSE,6.9,-,N/A,,Clear,150,2012-10-04 05:53:00
1:14 AM,57.2,42.8,59,29.82,10.0,SSE,4.6,-,N/A,,Clear,150,2012-10-04 06:14:00
1:33 AM,55.4,42.8,63,29.82,10.0,SSE,5.8,-,N/A,,Clear,150,2012-10-04 06:33:00
1:53 AM,55.4,42.8,63,29.81,10.0,SSE,6.9,-,N/A,,Clear,160,2012-10-04 06:53:00
2:14 AM,57.2,42.8,59,29.81,10.0,South,6.9,-,N/A,,Clear,170,2012-10-04 07:14:00
2:34 AM,59.0,42.8,55,29.80,10.0,South,9.2,-,N/A,,Clear,170,2012-10-04 07:34:00
2:53 AM,59.0,41.0,51,29.80,10.0,South,10.4,-,N/A,,Clear,190,2012-10-04 07:53:00
3:13 AM,60.8,41.0,48,29.78,10.0,South,12.7,21.9,N/A,,Clear,190,2012-10-04 08:13:00
3:33 AM,60.8,39.2,45,29.79,10.0,SSW,8.1,18.4,N/A,,Clear,200,2012-10-04 08:33:00
3:53 AM,60.8,37.4,42,29.80,10.0,WSW,15.0,20.7,N/A,,Clear,240,2012-10-04 08:53:00
4:13 AM,53.6,41.0,62,29.82,7.0,WSW,16.1,27.6,N/A,,Clear,240,2012-10-04 09:13:00
4:33 AM,51.8,41.0,67,29.83,7.0,WSW,13.8,24.2,N/A,,Clear,240,2012-10-04 09:33:00
4:53 AM,48.2,41.0,76,29.85,7.0,WSW,12.7,20.7,N/A,,Clear,250,2012-10-04 09:53:00
5:13 AM,48.2,41.0,76,29.86,10.0,WSW,13.8,19.6,N/A,,Scattered Clouds,250,2012-10-04 10:13:00
5:33 AM,46.4,39.2,76,29.87,10.0,WSW,17.3,24.2,N/A,,Mostly Cloudy,250,2012-10-04 10:33:00
5:54 AM,46.4,39.2,76,29.87,10.0,WSW,15.0,24.2,N/A,,Overcast,250,2012-10-04 10:54:00
6:13 AM,46.4,39.2,76,29.88,10.0,WSW,17.3,24.2,N/A,,Overcast,250,2012-10-04 11:13:00
6:33 AM,46.4,39.2,76,29.89,10.0,West,16.1,25.3,N/A,,Overcast,260,2012-10-04 11:33:00
6:54 AM,46.4,39.2,76,29.91,10.0,West,13.8,27.6,N/A,,Overcast,260,2012-10-04 11:54:00
7:13 AM,46.4,39.2,76,29.91,10.0,WSW,13.8,25.3,N/A,,Overcast,250,2012-10-04 12:13:00
7:38 AM,44.6,37.4,76,29.92,10.0,West,16.1,27.6,N/A,,Overcast,260,2012-10-04 12:38:00
7:54 AM,44.6,37.4,76,29.93,10.0,West,13.8,26.5,N/A,,Overcast,260,2012-10-04 12:54:00
8:13 AM,44.6,37.4,76,29.93,10.0,West,11.5,23.0,N/A,,Overcast,260,2012-10-04 13:13:00
8:33 AM,44.6,35.6,71,29.94,10.0,West,17.3,26.5,N/A,,Overcast,260,2012-10-04 13:33:00
8:54 AM,42.8,33.8,70,29.95,10.0,WSW,15.0,31.1,N/A,,Mostly Cloudy,250,2012-10-04 13:54:00
9:13 AM,44.6,33.8,66,29.96,10.0,West,20.7,26.5,N/A,,Scattered Clouds,270,2012-10-04 14:13:00
9:33 AM,44.6,33.8,66,29.96,10.0,West,19.6,29.9,N/A,,Scattered Clouds,260,2012-10-04 14:33:00
9:53 AM,44.6,33.8,66,29.97,10.0,West,16.1,31.1,N/A,,Scattered Clouds,260,2012-10-04 14:53:00
10:13 AM,44.6,33.8,66,29.98,10.0,West,18.4,32.2,N/A,,Scattered Clouds,260,2012-10-04 15:13:00
10:34 AM,42.8,33.8,70,29.99,10.0,West,15.0,26.5,N/A,,Mostly Cloudy,260,2012-10-04 15:34:00
10:53 AM,42.8,33.8,70,29.99,10.0,West,15.0,26.5,N/A,,Overcast,260,2012-10-04 15:53:00
11:13 AM,42.8,33.8,70,30.00,10.0,West,19.6,34.5,N/A,,Overcast,270,2012-10-04 16:13:00
11:33 AM,44.6,33.8,66,30.01,10.0,West,17.3,25.3,N/A,,Overcast,260,2012-10-04 16:33:00
11:53 AM,46.4,33.8,62,30.00,10.0,West,21.9,32.2,N/A,,Mostly Cloudy,280,2012-10-04 16:53:00
12:13 PM,46.4,33.8,62,30.02,10.0,WNW,21.9,27.6,N/A,,Mostly Cloudy,290,2012-10-04 17:13:00
12:33 PM,46.4,33.8,62,30.02,10.0,West,21.9,29.9,N/A,,Overcast,260,2012-10-04 17:33:00
12:53 PM,46.4,32.0,57,30.03,10.0,West,24.2,36.8,N/A,,Scattered Clouds,280,2012-10-04 17:53:00
1:13 PM,46.4,32.0,57,30.03,10.0,West,21.9,35.7,N/A,,Scattered Clouds,280,2012-10-04 18:13:00
1:33 PM,48.2,32.0,54,30.03,10.0,West,27.6,34.5,N/A,,Scattered Clouds,280,2012-10-04 18:33:00
1:53 PM,48.2,32.0,54,30.05,10.0,West,26.5,33.4,N/A,,Mostly Cloudy,280,2012-10-04 18:53:00
2:13 PM,46.4,32.0,57,30.05,10.0,West,23.0,29.9,N/A,,Overcast,280,2012-10-04 19:13:00
2:33 PM,46.4,30.2,53,30.06,10.0,West,25.3,38.0,N/A,,Overcast,270,2012-10-04 19:33:00
2:53 PM,46.4,30.2,53,30.06,10.0,West,25.3,35.7,N/A,,Overcast,270,2012-10-04 19:53:00
3:13 PM,46.4,30.2,53,30.06,10.0,West,21.9,34.5,N/A,,Overcast,280,2012-10-04 20:13:00
3:33 PM,46.4,30.2,53,30.08,10.0,West,20.7,27.6,N/A,,Overcast,270,2012-10-04 20:33:00
3:53 PM,46.4,30.2,53,30.08,10.0,West,19.6,28.8,N/A,,Overcast,270,2012-10-04 20:53:00
4:13 PM,46.4,30.2,53,30.09,10.0,West,23.0,29.9,N/A,,Overcast,280,2012-10-04 21:13:00
4:33 PM,46.4,30.2,53,30.09,10.0,West,23.0,31.1,N/A,,Overcast,280,2012-10-04 21:33:00
4:53 PM,46.4,30.2,53,30.10,10.0,West,18.4,27.6,N/A,,Overcast,280,2012-10-04 21:53:00
5:13 PM,46.4,30.2,53,30.10,10.0,WNW,19.6,27.6,N/A,,Overcast,290,2012-10-04 22:13:00
5:53 PM,44.6,30.2,57,30.11,10.0,WNW,25.3,32.2,N/A,,Overcast,290,2012-10-04 22:53:00
6:13 PM,44.6,30.2,57,30.12,10.0,West,16.1,27.6,N/A,,Overcast,280,2012-10-04 23:13:00
6:33 PM,44.6,30.2,57,30.12,10.0,West,18.4,29.9,N/A,,Overcast,280,2012-10-04 23:33:00
6:53 PM,42.8,30.2,61,30.13,10.0,WNW,13.8,24.2,N/A,,Overcast,290,2012-10-04 23:53:00
7:13 PM,42.8,30.2,61,30.13,10.0,West,18.4,28.8,N/A,,Overcast,280,2012-10-05 00:13:00
7:33 PM,42.8,30.2,61,30.14,10.0,West,13.8,33.4,N/A,,Overcast,280,2012-10-05 00:33:00
7:53 PM,42.8,30.2,61,30.14,10.0,West,13.8,20.7,N/A,,Overcast,270,2012-10-05 00:53:00
8:13 PM,42.8,28.4,57,30.15,10.0,WNW,20.7,31.1,N/A,,Overcast,290,2012-10-05 01:13:00
8:33 PM,42.8,28.4,57,30.15,10.0,WNW,13.8,33.4,N/A,,Overcast,290,2012-10-05 01:33:00
8:53 PM,42.8,28.4,57,30.15,10.0,West,18.4,25.3,N/A,,Overcast,280,2012-10-05 01:53:00
9:14 PM,42.8,28.4,57,30.15,10.0,West,13.8,23.0,N/A,,Overcast,280,2012-10-05 02:14:00
9:33 PM,42.8,28.4,57,30.15,10.0,West,17.3,23.0,N/A,,Overcast,280,2012-10-05 02:33:00
9:53 PM,42.8,28.4,57,30.16,10.0,West,12.7,-,N/A,,Scattered Clouds,280,2012-10-05 02:53:00
10:14 PM,41.0,28.4,61,30.16,10.0,West,10.4,-,N/A,,Scattered Clouds,270,2012-10-05 03:14:00
10:33 PM,42.8,30.2,61,30.16,10.0,West,15.0,24.2,N/A,,Mostly Cloudy,270,2012-10-05 03:33:00
10:53 PM,41.0,30.2,65,30.16,10.0,West,12.7,20.7,N/A,,Scattered Clouds,270,2012-10-05 03:53:00
11:14 PM,41.0,32.0,70,30.15,10.0,West,13.8,19.6,N/A,,Scattered Clouds,270,2012-10-05 04:14:00
11:33 PM,39.2,30.2,70,30.15,10.0,West,16.1,21.9,N/A,,Scattered Clouds,270,2012-10-05 04:33:00
11:53 PM,39.2,30.2,70,30.15,10.0,West,18.4,26.5,N/A,,Mostly Cloudy,270,2012-10-05 04:53:00